Location: Blauwhuis
(53.0167°N, 5.5333°E)
Time: 04:48:33
(UTC+00:00)

Daily predictions for brighter satellites

Satellite Brightness Start Highest point End
(mag) Time Altitude Azimuth Time Altitude Azimuth Time Altitude Azimuth
BREEZE-M R/B 4.3 00:04:50 28° SE 00:04:50 28° SE 00:08:03 10° ESE
Sich 1 Rocket 4.4 00:00:45 10° N 00:05:13 48° ENE 00:07:13 29° SE
DNEPR-1 R/B 4.2 00:04:11 40° S 00:05:51 56° SE 00:10:40 10° NE
SeaSat 1 2.4 00:01:13 10° NNE 00:06:12 86° WNW 00:08:06 39° SW
Cosmos 1378 3.7 00:08:51 41° ESE 00:09:20 43° E 00:12:53 10° NNE
ATLAS 2AS CENTAUR R/B 3.3 00:02:55 10° NW 00:09:38 39° WSW 00:11:46 32° SSW
Cosmos 1356 Rocket 3.7 00:06:23 10° N 00:10:38 66° ENE 00:11:59 41° SE
USA 215 4.0 00:10:09 30° SW 00:11:02 31° SW 00:16:43 10° WNW
Cosmos 1943 Rocket 2.1 00:09:25 38° SSW 00:11:41 84° ESE 00:17:20 10° NNE
Cosmos 2242 Rocket 3.5 00:11:35 51° SSW 00:12:43 88° WNW 00:17:11 10° N
Cosmos 2239 Rocket 4.5 00:06:48 10° N 00:13:07 89° ENE 00:16:15 32° S
Cosmos 1461 3.9 00:15:16 35° SE 00:16:01 37° ESE 00:20:17 10° NE
EO 1 Del DPAF 3.0 00:14:34 10° NNE 00:18:20 86° WNW 00:18:53 63° SSW
Cosmos 1937 Rocket 3.7 00:18:25 32° SW 00:20:41 61° WNW 00:25:50 10° NNE
Cosmos 44 Rocket 4.4 00:16:44 10° NW 00:21:51 48° NE 00:26:53 10° ESE
Cosmos 1833 4.2 00:16:47 10° NNW 00:22:35 87° ENE 00:26:12 24° SSE
Meteor 1-15 Rocket 4.4 00:18:23 10° N 00:24:00 68° ENE 00:27:18 26° SSE
EO 1 Delta rocket 4.0 00:22:20 41° S 00:24:03 75° W 00:29:40 10° NNW
Cosmos 1048 Rocket 3.9 00:18:41 10° NNW 00:24:04 79° WSW 00:26:22 35° SSE
SL-16 R/B 3.2 00:21:04 12° SE 00:26:40 52° ENE 00:32:44 10° N
Cosmos 2084 Rocket 3.9 00:24:00 10° WNW 00:27:54 40° SW 00:27:54 40° SW
Cosmos 2297 4.0 00:26:29 27° SW 00:29:35 62° NW 00:35:15 10° NNE
Okean 1-7 3.1 00:29:25 46° SW 00:30:31 66° WNW 00:34:47 10° N
YAOGAN 11 4.0 00:32:59 45° S 00:34:13 73° WSW 00:38:32 10° NNW
Cosmos 2151 Rocket 4.3 00:30:03 10° N 00:34:29 51° ENE 00:36:57 24° SE
Okean 2 Rocket 3.3 00:30:50 10° N 00:35:14 64° ENE 00:37:10 32° SSE
Gbstr 26 Del rocket 3.9 00:29:19 10° WNW 00:35:55 53° SSW 00:41:14 10° SE
Cosmos 2297 Rocket 4.4 00:31:28 10° NNW 00:36:14 26° NE 00:40:58 10° E
Cosmos 1821 Rocket 4.3 00:31:19 10° NNW 00:37:33 56° W 00:40:28 31° SSW
Cosmos 2344 4.2 00:31:02 10° NW 00:39:56 81° SW 00:52:20 10° SE
Helios 1A 3.0 00:41:18 46° SSW 00:42:20 65° WSW 00:46:31 10° NNW
Okean 3 3.4 00:41:55 46° SSW 00:43:10 87° W 00:47:28 10° N
Cosmos 1656 Rocket 3.9 00:42:15 33° S 00:44:30 57° ESE 00:49:55 10° NE
Helios 1B rocket 3.9 00:41:04 10° NE 00:44:41 28° E 00:46:30 20° SE
ISS -1.8 00:48:19 19° ESE 00:48:19 19° ESE 00:49:54 10° E
Cosmos 2150 Rocket 4.2 00:45:19 34° S 00:47:37 67° ESE 00:52:55 10° NNE
Cosmos 1934 Rocket 3.9 00:43:08 10° NNW 00:49:21 75° W 00:52:36 29° S
NOSS 2-1 (C) 4.2 00:45:55 10° NW 00:50:19 71° NE 00:56:32 10° SE
RESURS DK-1 2.3 00:47:17 10° NW 00:51:25 63° WSW 00:52:34 43° S
SJ 16-02 4.1 00:50:05 10° WNW 00:51:51 12° NW 00:53:37 10° NNW
Cosmos 1867 4.1 00:52:08 30° S 00:54:18 46° ESE 00:59:32 10° NE
CZ-2D R/B 2.9 00:49:57 10° NNE 00:55:10 44° E 00:58:21 22° SSE
UNK 4.1 00:53:30 21° SSE 00:56:33 63° ENE 01:01:07 10° N
NOSS 2-1 (D) 4.1 00:52:36 10° NW 00:57:04 77° NE 01:03:20 10° SE
COSMOS 2487 3.5 00:55:33 10° NNW 00:58:49 42° ENE 01:01:12 16° SE
Cosmos 1300 Rocket 3.6 00:56:17 10° NNW 01:00:41 62° W 01:02:12 38° SSW
ATLAS CENTAUR R/B 2.5 01:02:36 23° SE 01:03:20 25° ESE 01:06:28 10° ENE
ERBS 4.1 01:03:06 10° WNW 01:04:15 19° W 01:04:15 19° W
SL-27 R/B 2.8 01:03:23 10° NW 01:06:27 41° WSW 01:06:27 41° WSW
Cosmos 2221 Rocket 3.6 01:08:51 34° S 01:10:52 88° E 01:15:28 10° NNE
USA 81 4.0 01:06:50 10° N 01:12:08 73° W 01:14:57 28° S
Meteor 1-13 Rocket 4.5 01:09:25 28° SW 01:12:16 57° WNW 01:17:45 10° N
USA 281 3.5 01:09:03 26° S 01:12:32 48° WSW 01:18:53 10° NW
CZ-4 R/B 4.1 01:15:41 10° N 01:20:33 59° WNW 01:23:00 28° SW
Meteor 2-10 4.2 01:17:02 10° NNW 01:22:38 81° ENE 01:27:05 15° SSE
Cosmos 1805 4.0 01:19:44 10° NNW 01:23:20 35° W 01:24:13 31° WSW
Cosmos 1707 4.4 01:20:58 13° SE 01:23:38 28° E 01:26:56 10° NNE
Cosmos 1315 Rocket 4.5 01:20:13 10° N 01:23:48 32° ENE 01:27:23 10° SE
Cosmos 1766 3.6 01:21:15 10° NNW 01:25:07 48° W 01:26:24 34° SW
MOZ.5/SAFIR/RUBIN 5/SL-8 4.3 01:24:37 30° SW 01:26:21 42° W 01:30:46 10° NNW
Cosmos 1125 Rocket 3.5 01:24:54 28° SSW 01:27:45 79° WNW 01:33:01 10° NNE
Cosmos 1400 Rocket 2.8 01:24:24 10° NNW 01:28:34 86° WSW 01:31:00 24° S
Resurs 1-4 Rocket 2.1 01:24:09 10° NNE 01:29:27 79° ESE 01:32:45 24° S
ADEOS II 3.0 01:26:52 10° NNE 01:31:54 43° E 01:36:09 14° SSE
Cosmos 2369 Rocket 2.7 01:31:09 20° WSW 01:34:53 51° NW 01:40:25 10° NNE
Cosmos 1733 4.2 01:35:33 10° NNW 01:38:51 29° W 01:39:44 26° WSW
Meteor 1-23 Rocket 4.5 01:35:38 24° SW 01:39:08 61° WNW 01:44:56 10° N
SL-19 R/B 4.5 01:35:36 10° NNE 01:41:30 72° ESE 01:45:37 19° S
Cosmos 1605 Rocket 4.3 01:36:30 10° NNW 01:42:25 50° W 01:46:26 21° SSW
SeaSat 1 4.3 01:39:18 10° NNE 01:43:12 24° NW 01:47:06 10° W
CZ-3B R/B 4.3 01:28:48 18° SW 01:43:29 54° SSE 01:48:35 10° ENE
ARGOS Delta rocket 4.2 01:39:37 10° NNE 01:44:02 57° E 01:47:33 16° S
Cosmos 1470 2.7 01:44:01 10° NNW 01:47:55 74° W 01:50:26 21° S
Lacrosse 5 3.7 01:45:07 12° SSE 01:48:05 19° SE 01:51:37 10° E
Cosmos 1378 Rocket 3.5 01:51:10 23° SSW 01:53:48 75° WNW 01:58:10 10° N
Cosmos 1459 Rocket 4.1 01:47:27 10° N 01:53:51 85° E 02:00:05 10° S
NOSS 2-1 (E) 4.2 01:49:35 10° NW 01:54:20 59° SW 02:01:00 10° SSE
Cosmos 2251 Rocket 4.0 01:49:43 10° NNW 01:54:57 63° ENE 02:00:09 10° SE
Cosmos 1461 3.8 01:51:36 17° WSW 01:55:03 50° NW 01:59:31 10° NE
Cosmos 1943 Rocket 3.7 01:51:20 10° W 01:56:07 27° NW 02:00:53 10° NNE
Okean 1 Rocket 3.2 01:53:07 10° NNW 01:57:28 54° W 02:00:21 20° SSW
Cosmos 1269 Rocket 4.4 01:52:37 10° NW 01:57:40 45° WSW 02:01:40 15° S
IRS-1D 4.1 01:54:14 10° NNE 01:59:29 59° ESE 02:04:22 12° S
Cosmos 2173 Rocket 3.9 01:53:28 10° N 01:59:38 87° W 02:05:49 10° S
Cosmos 1607 4.1 01:55:38 18° SW 02:00:36 76° NW 02:07:09 10° NE
Cosmos 1726 2.2 01:58:31 10° NNW 02:02:11 57° W 02:04:34 20° S
Cosmos 44 Rocket 3.7 01:58:28 10° NW 02:03:27 45° WSW 02:08:19 10° SSE
COSMOS 2455 2.9 01:58:30 10° NW 02:04:35 89° NE 02:10:37 10° SE
Cosmos 1802 Rocket 4.0 02:00:10 10° N 02:06:24 86° ENE 02:12:32 10° S
SL-16 R/B 3.2 02:06:09 17° SSW 02:10:29 38° W 02:16:18 10° NNW
Meteor 1-28 Rocket 3.0 02:07:32 11° S 02:11:03 78° WSW 02:14:47 10° NNW
Meteor 1-29 2.9 02:07:58 10° N 02:11:20 67° WNW 02:13:24 21° SSW
Cosmos 1842 3.9 02:10:36 21° SW 02:12:48 41° WNW 02:16:30 10° N
NPP 3.8 02:08:31 10° N 02:13:51 62° WNW 02:18:04 16° SW
Cosmos 2100 Rocket 4.0 02:08:50 10° NNW 02:15:02 67° W 02:21:16 10° S
Cosmos 2227 Rocket 2.5 02:11:08 10° NNW 02:16:49 71° NE 02:22:27 10° SE
Cosmos 1674 Rocket 4.3 02:14:50 18° SW 02:17:41 40° WNW 02:21:56 10° N
GP-B 3.9 02:13:45 10° N 02:18:07 52° E 02:22:27 10° SSE
Cosmos 1626 4.2 02:15:47 10° SE 02:18:50 25° E 02:21:54 10° NE
Cosmos 1953 2.5 02:15:33 10° N 02:19:32 75° ENE 02:23:31 10° SSE
Helios 1B rocket 3.3 02:16:11 10° N 02:20:00 37° WNW 02:22:49 16° SW
Landsat 4 4.0 02:16:57 10° N 02:20:36 54° WNW 02:23:14 18° SW
AQUA 4.0 02:16:04 10° N 02:20:46 59° WNW 02:24:31 16° SW
Cosmos 2297 Rocket 2.2 02:15:19 10° NNW 02:21:03 90° NNE 02:26:44 10° SSE
Okean 2 3.8 02:19:01 18° SW 02:21:54 49° WNW 02:25:58 10° N
ISS -3.6 02:21:16 18° WSW 02:23:36 58° SSE 02:26:57 10° E
Cosmos 2123 Rocket 4.2 02:24:13 10° S 02:30:20 72° E 02:36:32 10° NNE
ADEOS Rocket 3.6 02:25:03 10° S 02:32:16 66° W 02:40:00 10° NNW
Cosmos 1544 Rocket 3.7 02:28:14 10° N 02:32:37 77° E 02:37:00 10° SSE
COSMOS 2487 4.0 02:31:02 10° WNW 02:33:24 18° W 02:34:28 15° SW
CZ-2D R/B 3.0 02:30:09 10° N 02:35:10 38° WNW 02:39:40 12° SW
Cosmos 371 Rocket 4.3 02:30:56 10° S 02:35:31 43° ESE 02:40:09 10° NE
Spot 1 4.4 02:31:10 10° S 02:35:37 58° WSW 02:40:23 10° NNW
Cosmos 1025 Rocket 3.8 02:32:36 10° S 02:36:48 53° E 02:41:03 10° NNE
Cosmos 1867 4.2 02:32:47 11° WSW 02:37:56 50° NW 02:43:18 10° NE
[s.n.48335] 4.5 02:41:23 13° SSW 02:41:23 13° SSW 02:42:08 10° S
[s.n.48334] 4.5 02:41:26 13° SSW 02:41:26 13° SSW 02:42:12 10° S
[s.n.48332] 4.5 02:41:30 13° SSW 02:41:30 13° SSW 02:42:17 10° S
[s.n.48331] 4.5 02:41:39 13° SSW 02:41:39 13° SSW 02:42:24 10° S
[s.n.48329] 4.5 02:41:47 13° SSW 02:41:47 13° SSW 02:42:33 10° S
ATLAS CENTAUR R/B 1.7 02:38:44 13° WSW 02:41:57 51° NW 02:45:45 10° NE
ARIANE 5 R/B 3.2 02:37:27 10° NNE 02:42:35 54° E 02:47:37 10° S
Cosmos 1455 Rocket 3.2 02:39:40 10° NNW 02:43:55 55° W 02:48:08 10° S
Lacrosse 4 Rocket 4.3 02:42:41 10° ESE 02:44:01 11° ESE 02:45:22 10° E
[s.n.48325] 4.5 02:44:48 13° SSW 02:44:48 13° SSW 02:45:39 10° S
[s.n.48322] 4.5 02:45:11 13° SSW 02:45:11 13° SSW 02:46:03 10° S
[s.n.48310] 4.5 02:45:51 13° SSW 02:45:51 13° SSW 02:46:43 10° S
[s.n.48309] 4.5 02:45:54 13° SSW 02:45:54 13° SSW 02:46:47 10° S
[s.n.48308] 4.5 02:45:59 13° SSW 02:45:59 13° SSW 02:46:52 10° S
[s.n.48297] 4.5 02:46:44 13° SSW 02:46:44 13° SSW 02:47:38 10° S
[s.n.48296] 4.5 02:46:48 13° SSW 02:46:48 13° SSW 02:47:42 10° S
[s.n.48292] 4.5 02:47:01 13° SSW 02:47:01 13° SSW 02:47:59 10° S
[s.n.48281] 4.5 02:47:49 13° SSW 02:47:49 13° SSW 02:48:48 10° S
[s.n.48276] 4.5 02:48:16 13° SSW 02:48:16 13° SSW 02:49:09 10° S
Cosmos 1758 4.5 02:45:49 10° NNW 02:49:19 27° W 02:52:44 10° SSW
CZ-4C R/B 4.1 02:46:48 10° SSW 02:50:56 40° W 02:54:59 10° NNW
Cosmos 2219 3.2 02:46:23 10° NW 02:52:01 65° WSW 02:57:40 10° SSE
In-Cosmos 22 4.3 02:48:30 10° SSW 02:54:10 69° WNW 02:59:45 10° N
KORONAS-FOTON 3.8 02:52:44 10° SSW 02:56:39 74° WNW 03:00:36 10° N
Cosmos 1140 Rocket 3.8 02:52:20 10° NNW 02:57:33 74° ENE 03:02:46 10° SSE
Cosmos 1707 3.8 02:56:07 11° SW 02:59:26 31° WNW 03:02:53 10° N
Cosmos 1315 Rocket 3.8 02:56:52 10° NNW 03:00:18 28° W 03:03:43 10° SSW
Cosmos 1674 2.8 02:57:11 10° SSW 03:01:00 66° WNW 03:04:51 10° N
CBERS-1 4.3 03:01:34 10° N 03:06:33 53° WNW 03:11:30 10° SW
USA 129 1.6 03:04:11 10° S 03:06:35 62° WSW 03:08:32 10° NNW
IDEFIX/ARIANE 42P 2.7 03:02:26 10° N 03:07:39 67° WNW 03:12:52 10° SSW
Cosmos 2061 Rocket 4.4 03:02:35 10° NNW 03:08:34 48° W 03:14:34 10° SSW
Resurs 1-4 Rocket 3.6 03:04:46 10° N 03:08:45 22° NW 03:12:43 10° WSW
Timation 2 Rocket 4.0 03:03:01 10° NW 03:08:48 52° WSW 03:14:33 10° S
Cosmos 1300 2.9 03:06:14 10° N 03:10:05 76° ENE 03:13:54 10° SSE
ADEOS II 2.9 03:06:44 10° N 03:11:32 37° WNW 03:16:19 10° SW
TSX-5 3.6 03:08:50 10° NW 03:11:58 49° WSW 03:15:31 10° SSE
Cosmos 614 Rocket 4.3 03:09:41 10° NW 03:14:30 45° WSW 03:19:20 10° S
Cosmos 1908 4.0 03:11:34 10° NNW 03:15:06 34° W 03:18:38 10° SSW
Cosmos 1725 Rocket 4.4 03:09:45 10° NNW 03:15:42 46° W 03:21:36 10° SSW
